Weather History for Winslow, AZ

Change the Weather History Date:

Friday, November 11, 2011

  Actual Average Record
Temperature  
Mean Temperature 42 °F 46 °F  
Max Temperature 50 °F 62 °F 77 °F (1927)
Min Temperature 33 °F 30 °F 14 °F (1950)
Degree Days  
Heating Degree Days 23 19  
Month to date heating degree days 245 187  
Since 1 July heating degree days 503 493  
Cooling Degree Days 0 0  
Month to date cooling degree days 0 0  
Year to date cooling degree days 1347 1208  
Moisture  
Dew Point 31 °F    
Average Humidity 66    
Maximum Humidity 89    
Minimum Humidity 42    
Precipitation  
Precipitation 0.00 in 0.02 in 0.53 in (1991)
Month to date precipitation 0.59 0.20  
Year to date precipitation 6.07 6.14  
Sea Level Pressure  
Sea Level Pressure 30.09 in    
Wind  
Wind Speed 1 mph (ENE)    
Max Wind Speed 8 mph    
Max Gust Speed 9 mph    
Visibility 10 miles    
Events      
T = Trace of Precipitation, MM = Missing Value Source: NWS Daily Summary

Daily Weather History Graph

Daily Weather History Graph

Search for Another Location

Airport:

Trip Planner

Search our weather history database for the weather conditions in past years. The results will help you decide how hot, cold, wet, or windy it might be!

Date:

Astronomy

Nov. 11, 2011 Rise Set
Actual Time 6:53 AM MST 5:20 PM MST
Civil Twilight 6:26 AM MST 5:46 PM MST
Nautical Twilight 5:56 AM MST 6:17 PM MST
Astronomical Twilight 5:26 AM MST 6:47 PM MST
Moon 5:55 PM MST (11/11) 7:41 AM MST (11/11)
Length of Visible Light 11h 20m
Length of Day
10h 26m
Full, 99% of the Moon is Illuminated
Nov 11
Full
Nov 18
Last Quarter
Nov 24
New
Dec 2
First Quarter
Dec 10
Full

Hourly Weather History & Observations

Time (MST) Temp. Windchill Dew Point Humidity Pressure Visibility Wind Dir Wind Speed Gust Speed Precip Events Conditions
12:56 AM 36.0 °F - 30.0 °F 79% 30.22 in 10.0 mi Calm Calm - N/A   Clear
1:56 AM 37.0 °F - 30.0 °F 76% 30.18 in 10.0 mi Calm Calm - N/A   Clear
2:56 AM 35.1 °F - 28.9 °F 78% 30.17 in 10.0 mi Calm Calm - N/A   Clear
3:56 AM 34.0 °F - 30.0 °F 85% 30.17 in 10.0 mi Calm Calm - N/A   Clear
4:56 AM 33.8 °F - 30.2 °F 87% 30.17 in 10.0 mi Calm Calm - N/A   Clear
5:56 AM 34.0 °F - 30.0 °F 85% 30.15 in 10.0 mi Calm Calm - N/A   Clear
6:56 AM 34.0 °F - 30.9 °F 89% 30.18 in 10.0 mi Calm Calm - N/A   Clear
7:56 AM 36.0 °F 32.1 °F 30.0 °F 79% 30.16 in 10.0 mi East 4.6 mph - N/A   Clear
8:56 AM 37.4 °F 34.9 °F 30.2 °F 75% 30.15 in 10.0 mi ESE 3.5 mph - N/A   Clear
9:56 AM 41.0 °F - 30.9 °F 67% 30.15 in 10.0 mi Calm Calm - N/A   Clear
10:56 AM 42.1 °F - 28.9 °F 60% 30.15 in 10.0 mi Calm Calm - N/A   Overcast
11:56 AM 44.1 °F - 28.9 °F 55% 30.11 in 10.0 mi Calm Calm - N/A   Mostly Cloudy
12:56 PM 46.0 °F 44.8 °F 30.0 °F 54% 30.08 in 10.0 mi Variable 3.5 mph - N/A   Mostly Cloudy
1:56 PM 46.9 °F - 28.9 °F 50% 30.04 in 10.0 mi ESE 3.5 mph - N/A   Scattered Clouds
2:56 PM 48.2 °F - 28.4 °F 46% 30.05 in 10.0 mi Calm Calm - N/A   Scattered Clouds
3:56 PM 50.0 °F - 28.0 °F 43% 30.01 in 10.0 mi NNE 3.5 mph - N/A   Overcast
4:56 PM 48.9 °F - 28.9 °F 46% 30.00 in 10.0 mi NNW 3.5 mph - N/A   Mostly Cloudy
5:56 PM 46.9 °F - 30.9 °F 54% 29.99 in 10.0 mi Calm Calm - N/A   Clear
6:56 PM 43.0 °F - 33.1 °F 68% 30.01 in 10.0 mi Calm Calm - N/A   Clear
7:56 PM 42.1 °F 40.2 °F 34.0 °F 73% 30.01 in 10.0 mi West 3.5 mph - N/A   Clear
8:56 PM 44.1 °F - 33.1 °F 65% 30.01 in 10.0 mi Calm Calm - N/A   Clear
9:56 PM 44.1 °F - 33.1 °F 65% 29.99 in 10.0 mi Calm Calm - N/A   Clear
10:56 PM 43.0 °F - 33.1 °F 68% 29.99 in 10.0 mi Calm Calm - N/A   Mostly Cloudy
11:56 PM 41.0 °F - 33.1 °F 73% 29.99 in 10.0 mi Calm Calm - N/A   Partly Cloudy